TimeEST,TemperatureF,Dew PointF,Humidity,Sea Level PressureIn,VisibilityMPH,Wind Direction,Wind SpeedMPH,Gust SpeedMPH,PrecipitationIn,Events,Conditions,WindDirDegrees,DateUTC
12:35 AM,26.6,24.8,93,30.44,10.0,Calm,Calm,-,N/A,,Clear,0,2013-12-12 05:35:00
12:55 AM,26.6,24.8,93,30.44,10.0,Variable,3.5,-,N/A,,Clear,0,2013-12-12 05:55:00
1:15 AM,30.2,23.0,75,30.45,10.0,Variable,3.5,-,N/A,,Clear,0,2013-12-12 06:15:00
1:35 AM,30.2,23.0,75,30.45,10.0,Calm,Calm,-,N/A,,Clear,0,2013-12-12 06:35:00
1:55 AM,28.4,23.0,80,30.45,10.0,Calm,Calm,-,N/A,,Clear,0,2013-12-12 06:55:00
2:15 AM,28.4,23.0,80,30.45,10.0,Variable,3.5,-,N/A,,Clear,0,2013-12-12 07:15:00
2:35 AM,28.4,23.0,80,30.46,10.0,Calm,Calm,-,N/A,,Clear,0,2013-12-12 07:35:00
2:55 AM,28.4,21.2,74,30.46,10.0,NNE,3.5,-,N/A,,Clear,30,2013-12-12 07:55:00
3:15 AM,26.6,21.2,80,30.46,10.0,NE,3.5,-,N/A,,Clear,40,2013-12-12 08:15:00
3:35 AM,26.6,21.2,80,30.46,10.0,NNE,3.5,-,N/A,,Clear,20,2013-12-12 08:35:00
3:55 AM,26.6,21.2,80,30.46,10.0,Calm,Calm,-,N/A,,Clear,0,2013-12-12 08:55:00
4:15 AM,26.6,21.2,80,30.45,10.0,Calm,Calm,-,N/A,,Clear,0,2013-12-12 09:15:00
4:35 AM,26.6,21.2,80,30.46,10.0,Calm,Calm,-,N/A,,Clear,0,2013-12-12 09:35:00
4:55 AM,26.6,21.2,80,30.47,10.0,Variable,4.6,-,N/A,,Clear,0,2013-12-12 09:55:00
5:15 AM,24.8,19.4,80,30.48,10.0,Calm,Calm,-,N/A,,Clear,0,2013-12-12 10:15:00
5:35 AM,24.8,19.4,80,30.48,10.0,Calm,Calm,-,N/A,,Clear,0,2013-12-12 10:35:00
5:55 AM,24.8,19.4,80,30.50,10.0,Calm,Calm,-,N/A,,Clear,0,2013-12-12 10:55:00
6:15 AM,24.8,19.4,80,30.50,10.0,Calm,Calm,-,N/A,,Scattered Clouds,0,2013-12-12 11:15:00
6:35 AM,24.8,19.4,80,30.50,10.0,Calm,Calm,-,N/A,,Partly Cloudy,0,2013-12-12 11:35:00
6:55 AM,24.8,17.6,74,30.50,10.0,Variable,3.5,-,N/A,,Clear,0,2013-12-12 11:55:00
7:15 AM,24.8,17.6,74,30.50,10.0,Calm,Calm,-,N/A,,Clear,0,2013-12-12 12:15:00
7:35 AM,23.0,17.6,80,30.50,10.0,NNE,3.5,-,N/A,,Partly Cloudy,20,2013-12-12 12:35:00
7:55 AM,24.8,17.6,74,30.51,10.0,Calm,Calm,-,N/A,,Mostly Cloudy,0,2013-12-12 12:55:00
8:15 AM,24.8,17.6,74,30.51,10.0,Calm,Calm,-,N/A,,Overcast,0,2013-12-12 13:15:00
8:35 AM,24.8,17.6,74,30.52,10.0,NNE,3.5,-,N/A,,Overcast,30,2013-12-12 13:35:00
8:55 AM,24.8,17.6,74,30.52,10.0,Calm,Calm,-,N/A,,Mostly Cloudy,0,2013-12-12 13:55:00
9:15 AM,26.6,17.6,69,30.53,10.0,NNE,3.5,-,N/A,,Mostly Cloudy,20,2013-12-12 14:15:00
9:35 AM,26.6,19.4,74,30.54,10.0,Variable,4.6,-,N/A,,Overcast,0,2013-12-12 14:35:00
9:55 AM,26.6,19.4,74,30.54,10.0,Variable,3.5,-,N/A,,Scattered Clouds,0,2013-12-12 14:55:00
10:15 AM,28.4,19.4,69,30.54,10.0,Variable,3.5,-,N/A,,Partly Cloudy,0,2013-12-12 15:15:00
10:35 AM,30.2,19.4,64,30.54,10.0,North,4.6,-,N/A,,Clear,350,2013-12-12 15:35:00
10:55 AM,30.2,19.4,64,30.55,10.0,Variable,3.5,-,N/A,,Clear,0,2013-12-12 15:55:00
11:15 AM,30.2,19.4,64,30.55,10.0,Variable,4.6,-,N/A,,Clear,0,2013-12-12 16:15:00
11:35 AM,32.0,19.4,60,30.54,10.0,North,4.6,-,N/A,,Clear,10,2013-12-12 16:35:00
11:55 AM,32.0,19.4,60,30.53,10.0,Variable,3.5,-,N/A,,Clear,0,2013-12-12 16:55:00
12:15 PM,33.8,17.6,52,30.53,10.0,Variable,5.8,-,N/A,,Clear,0,2013-12-12 17:15:00
12:35 PM,33.8,19.4,56,30.52,10.0,Variable,5.8,-,N/A,,Clear,0,2013-12-12 17:35:00
12:55 PM,33.8,17.6,52,30.51,10.0,NNE,4.6,-,N/A,,Clear,20,2013-12-12 17:55:00
1:15 PM,35.6,15.8,44,30.50,10.0,Variable,3.5,-,N/A,,Clear,0,2013-12-12 18:15:00
1:35 PM,35.6,15.8,44,30.50,10.0,NW,4.6,-,N/A,,Clear,320,2013-12-12 18:35:00
1:55 PM,35.6,12.2,38,30.49,10.0,NNW,5.8,-,N/A,,Clear,330,2013-12-12 18:55:00
2:15 PM,35.6,12.2,38,30.48,10.0,NW,4.6,-,N/A,,Clear,320,2013-12-12 19:15:00
2:35 PM,37.4,12.2,36,30.48,10.0,NNE,5.8,-,N/A,,Clear,30,2013-12-12 19:35:00
2:55 PM,37.4,12.2,36,30.47,10.0,Variable,4.6,-,N/A,,Clear,0,2013-12-12 19:55:00
3:15 PM,37.4,12.2,36,30.46,10.0,NNE,3.5,-,N/A,,Clear,20,2013-12-12 20:15:00
3:55 PM,37.4,10.4,33,30.45,10.0,Calm,Calm,-,N/A,,Clear,0,2013-12-12 20:55:00
4:15 PM,37.4,10.4,33,30.45,10.0,Calm,Calm,-,N/A,,Clear,0,2013-12-12 21:15:00
4:35 PM,37.4,10.4,33,30.45,10.0,Calm,Calm,-,N/A,,Clear,0,2013-12-12 21:35:00
4:55 PM,35.6,12.2,38,30.45,10.0,NE,3.5,-,N/A,,Clear,40,2013-12-12 21:55:00
5:15 PM,35.6,12.2,38,30.45,10.0,NE,3.5,-,N/A,,Clear,40,2013-12-12 22:15:00
5:35 PM,33.8,12.2,41,30.45,10.0,Calm,Calm,-,N/A,,Clear,0,2013-12-12 22:35:00
5:55 PM,30.2,19.4,64,30.45,10.0,Calm,Calm,-,N/A,,Clear,0,2013-12-12 22:55:00
6:15 PM,30.2,15.8,55,30.45,10.0,Calm,Calm,-,N/A,,Clear,0,2013-12-12 23:15:00
6:35 PM,28.4,19.4,69,30.44,10.0,Calm,Calm,-,N/A,,Clear,0,2013-12-12 23:35:00
6:55 PM,26.6,17.6,69,30.45,10.0,Calm,Calm,-,N/A,,Clear,0,2013-12-12 23:55:00
7:15 PM,26.6,17.6,69,30.45,10.0,Calm,Calm,-,N/A,,Clear,0,2013-12-13 00:15:00
7:35 PM,26.6,17.6,69,30.44,10.0,Calm,Calm,-,N/A,,Clear,0,2013-12-13 00:35:00
7:55 PM,24.8,19.4,80,30.44,10.0,Calm,Calm,-,N/A,,Clear,0,2013-12-13 00:55:00
8:15 PM,24.8,17.6,74,30.44,10.0,Calm,Calm,-,N/A,,Clear,0,2013-12-13 01:15:00
8:35 PM,24.8,17.6,74,30.44,10.0,Calm,Calm,-,N/A,,Clear,0,2013-12-13 01:35:00
8:55 PM,24.8,17.6,74,30.43,10.0,Calm,Calm,-,N/A,,Clear,0,2013-12-13 01:55:00
9:15 PM,24.8,19.4,80,30.43,10.0,Calm,Calm,-,N/A,,Clear,0,2013-12-13 02:15:00
9:35 PM,23.0,17.6,80,30.43,10.0,Calm,Calm,-,N/A,,Clear,0,2013-12-13 02:35:00
9:55 PM,21.2,19.4,93,30.42,10.0,Calm,Calm,-,N/A,,Clear,0,2013-12-13 02:55:00
10:15 PM,23.0,19.4,86,30.42,10.0,Calm,Calm,-,N/A,,Clear,0,2013-12-13 03:15:00
10:35 PM,21.2,17.6,86,30.43,10.0,Calm,Calm,-,N/A,,Clear,0,2013-12-13 03:35:00
10:55 PM,21.2,19.4,93,30.42,10.0,Calm,Calm,-,N/A,,Clear,0,2013-12-13 03:55:00
11:15 PM,21.2,19.4,93,30.42,10.0,Calm,Calm,-,N/A,,Clear,0,2013-12-13 04:15:00
11:35 PM,23.0,19.4,86,30.43,10.0,Calm,Calm,-,N/A,,Clear,0,2013-12-13 04:35:00
11:55 PM,21.2,19.4,93,30.44,10.0,Calm,Calm,-,N/A,,Clear,0,2013-12-13 04:55:00